SCP
0 0 0 0 0 0 0 0 0 0 0 0 0 0 0 0 0 0 0 0 0 0 0 0 0 0 0 0 0 0 0 0 0 0 0 0 0 0 0 0 0 0 0 0
0 0 0 0 0 0 0 0 0 0 0 0 0 0 0 0 0 0 0 0 0 0 0 0 0 0 0 0 0 0 0 0 0 0 0 0 0 0 0 0 0 0 0 0
0 0 0 0 0 0 0 0 0 0 0 0 0 0 0 0 0 0 0 0 0 0 0 0 0 0 0 0 0 0 0 0 0 0 0 0 0 0 0 0 0 0 0 0
0 0 0 0 0 0 0 0 0 0 0 0 0 0 0 0 0 0 0 0 0 0 0 0 0 0 0 0 0 0 0 0 0 0 0 0 0 0 0 0 0 0 0 0
0 0 0 0 0 0 0 0 0 0 0 0 0 0 0 0 0 0 0 0 0 0 0 0 0 0 0 0 0 0 0 0 0 0 0 0 0 0 0 0 0 0 0 0
0 0 0 0 0 0 0 0 0 0 0 0 0 0 0 0 0 0 0 0 0 0 0 0 0 0 0 0 0 0 0 0 0 0 0 0 0 0 0 0 0 0 0 0
-0 0 0 0 0 0 0 0 0 0 0 0 0 0 0 0 0 0 0 0 0 0 0 0 0 0 0 0 0 0 0 0 0 0 0 0 0 0 0 0 0 0 0 0
-0 -0 0 0 0 0 0 0 0 0 0 0 0 -0 -0 0 0 0 0 0 0 0 0 0 0 0 0 0 0 0 0 0 0 0 0 0 0 0 0 0 0 0 0 0
0 -0 0 0 0 0 0 0 0 0 0 0 0 0 0 0 0 0 0 0 0 0 0 0 0 0 0 0 0 0 0 0 0 0 0 0 0 0 0 0 0 0 0 0
0 0 -0 0 0 0 0 0 0 0 0 0 0 0 0 0 0 0 0 0 0 0 0 0 0 0 0 0 0 0 0 0 0 0 0 0 0 0 0 0 0 0 0 0
-0 0 0 -0 -0 -0 0 0 0 0 0 0 0 -0 0 0 0 0 0 0 0 0 0 0 0 0 0 0 0 0 0 0 0 0 0 0 0 0 0 0 0 0 0 0
-0 -0 0 -0 -0 -0 0 0 0 0 0 0 -0 0 0 0 0 0 0 0 0 0 0 0 0 0 0 0 0 0 0 0 0 0 0 0 0 0 0 0 0 0 0 0
0 0 0 0 0 -0 -0 0 0 0 0 0 0 0 0 0 0 0 0 0 0 0 0 0 0 0 0 0 0 0 0 0 0 0 0 0 0 0 0 0 0 0 0 0
-0 0 0 -0 -0 0 -0 -0 0 0 -0 -0 0 0 0 0 0 0 -0 0 0 0 0 0 0 0 0 0 0 0 0 0 0 0 0 0 0 0 0 0 0 0 0 0
0 0 0 0 0 0 -0 -0 -0 0 0 0 0 0 0 0 0 -0 0 0 0 0 0 0 0 0 0 0 0 0 0 0 0 0 0 0 0 0 0 0 0 0 0 0
0 0 -0 -0 -0 -0 -0 -0 -0 -0 -0 -0 0 0 0 0 0 0 0 0 0 0 0 0 0 0 0 0 0 0 0 0 0 0 0 0 0 0 0 0 0 0 0 0
0 0 0 -0 -0 -0 -0 0 0 0 0 0 0 0 0 0 0 0 0 0 0 0 0 0 0 0 0 0 0 0 0 0 0 0 0 0 0 0 0 0 0 0 0 0
0 0 0 0 0 -0 0 0 0 -0 -0 0 0 0 0 0 0 0 0 0 0 0 0 0 0 0 0 0 0 0 0 0 0 0 0 0 0 0 0 0 0 0 0 0
0 0 0 0 0 0 0 0 0 0 0 0 0 0 0 0 0 0 0 0 0 0 0 0 0 0 0 0 0 0 0 0 0 0 0 0 0 0 0 0 0 0 0 0
0 0 0 0 0 0 0 0 0 0 0 0 0 0 0 0 0 0 0 0 0 0 0 0 0 0 0 0 0 0 0 0 0 0 0 0 0 0 0 0 0 0 0 0
0 0 0 0 0 0 0 0 0 0 0 0 0 0 0 0 0 0 0 0 0 0 0 0 0 0 0 0 0 0 0 0 0 0 0 0 0 0 0 0 0 0 0 0
0 0 0 0 0 0 0 0 0 0 0 0 0 0 0 0 0 0 0 0 0 0 0 0 0 0 0 0 0 0 0 0 0 0 0 0 0 0 0 0 0 0 0 0
0 0 0 0 0 0 0 0 0 0 0 0 0 0 0 0 0 0 0 0 0 0 0 0 0 0 0 0 0 0 0 0 0 0 0 0 0 0 0 0 0 0 0 0
0 0 0 0 0 0 0 0 0 0 0 0 0 0 0 0 0 0 0 0 0 0 0 0 0 0 0 0 0 0 0 0 0 0 0 0 0 0 0 0 0 0 0 0
0 0 0 0 0 0 0 0 0 0 0 0 0 0 0 0 0 0 0 0 0 0 0 0 0 0 0 0 0 0 0 0 0 0 0 0 0 0 0 0 0 0 0 0
0 0 0 0 0 0 0 0 0 0 0 0 0 0 0 0 0 0 0 0 0 0 0 0 0 0 0 0 0 0 0 0 0 0 0 0 0 0 0 0 0 0 0 0
Wind_Speed_500mb
2 2 12 14 13 8 5 3 10 3 9 8 3 11 10 23 28 34 44 48 49 47 36 38 37 32 32 36 38 35 32 29 26 23 22 19 17 17 16 15 19 24 29 31
2 8 11 9 12 14 12 11 6 1 5 8 5 5 5 6 12 40 49 52 53 48 46 46 46 41 35 34 35 35 32 30 26 25 22 19 17 16 14 15 20 27 30 32
3 4 14 19 4 9 7 16 9 10 5 12 10 8 6 7 8 33 45 52 53 53 51 50 49 43 38 34 32 32 31 29 28 26 22 19 17 16 14 16 21 28 33 34
5 7 9 2 9 3 11 5 13 17 9 7 7 7 10 11 12 11 43 50 55 58 54 49 48 45 39 32 30 30 30 30 28 24 21 18 18 18 18 22 28 33 35 36
2 6 10 12 11 8 4 6 10 9 11 8 5 7 11 3 14 15 31 53 58 56 55 53 52 45 38 34 29 26 28 27 25 21 19 20 21 21 23 28 33 35 32 31
3 2 3 8 11 5 5 7 15 10 8 4 1 8 11 13 16 15 22 45 51 54 55 50 51 48 42 36 30 27 24 23 21 19 21 23 23 25 29 33 32 29 28 28
5 6 8 11 8 5 12 7 6 7 5 10 3 4 16 7 15 14 37 60 48 41 43 46 50 46 38 32 28 24 22 21 20 22 23 24 26 29 31 31 30 31 32 29
6 6 5 6 6 5 7 4 10 11 7 7 2 12 13 11 9 20 29 62 50 47 45 42 39 37 34 31 26 23 22 22 23 22 22 24 25 27 29 32 34 35 34 33
6 3 2 0 3 1 2 4 7 13 7 7 6 14 18 11 11 10 23 45 54 52 47 42 39 36 33 29 25 23 22 21 19 17 18 22 25 29 32 34 34 35 34 33
7 4 2 5 6 5 2 6 5 6 7 6 9 11 12 9 15 9 18 49 57 51 47 44 41 38 32 27 24 23 19 16 15 18 21 24 25 26 27 28 28 29 31 32
5 6 5 4 10 12 2 1 8 7 7 8 2 12 12 10 14 19 25 55 57 53 51 47 43 37 32 29 26 22 17 17 19 19 20 21 21 22 23 24 25 26 27 27
1 8 5 11 4 5 2 6 9 8 7 2 6 12 6 11 11 27 39 50 51 53 53 48 43 40 36 32 25 21 20 18 16 17 17 17 18 19 19 20 20 21 23 24
8 1 4 14 7 5 6 9 6 10 5 10 8 11 3 8 8 31 48 49 53 54 51 47 45 41 36 31 27 21 17 17 16 16 15 14 13 13 13 14 16 18 20 22
2 4 11 13 9 7 7 8 10 8 8 9 13 17 13 9 11 21 50 57 59 61 58 54 50 46 40 33 26 23 20 17 15 13 10 8 6 6 7 11 14 17 20 21
7 6 7 11 15 8 9 10 14 18 9 13 17 20 24 14 20 45 60 60 65 68 64 61 57 51 43 35 29 24 22 19 16 12 10 7 4 5 9 11 14 18 20 23
3 5 1 8 4 12 13 16 18 19 9 21 7 28 19 22 27 29 47 61 71 74 69 64 58 51 43 36 31 29 25 21 18 15 11 8 5 4 7 10 13 16 20 24
8 7 5 8 8 9 15 25 29 12 13 18 19 28 9 10 17 41 52 65 77 80 74 68 62 53 43 36 30 28 25 23 20 17 14 11 8 7 9 11 14 18 22 26
10 8 5 5 5 7 12 4 8 25 22 24 17 12 15 18 36 47 55 63 73 74 70 64 58 50 42 36 34 31 28 25 23 20 16 12 10 9 11 13 18 23 27 31
5 7 2 5 6 15 9 6 9 13 14 20 36 23 13 13 10 22 29 44 58 70 64 60 55 50 43 38 35 32 29 27 25 21 16 13 12 12 13 17 23 27 30 30
8 6 6 4 7 13 9 5 11 9 11 5 12 13 18 18 6 10 21 28 39 50 54 52 52 47 41 39 36 32 30 27 25 20 17 15 14 15 18 22 25 28 30 31
6 3 15 9 8 15 16 10 10 6 10 8 9 11 24 11 22 11 17 29 31 46 49 50 48 44 39 35 33 30 28 26 24 21 18 16 15 18 22 24 27 29 29 28
16 16 9 7 7 18 22 12 14 10 8 9 11 11 24 43 19 20 19 30 38 46 49 46 43 40 37 34 32 30 27 25 23 19 16 16 18 21 24 26 28 29 31 31
7 14 11 19 14 7 35 11 31 6 9 12 16 14 15 28 39 25 27 37 43 45 44 42 39 37 35 33 30 28 26 24 21 19 18 20 23 24 26 27 29 31 33 34
10 13 7 3 10 23 40 34 46 30 33 25 24 21 22 27 31 31 35 43 46 44 42 39 39 37 35 32 30 27 25 22 21 22 23 25 25 26 27 29 31 33 34 37
10 14 10 10 16 37 40 41 39 47 50 43 38 33 32 30 32 34 38 44 45 43 41 38 35 33 31 30 28 27 25 23 23 25 26 26 27 28 30 32 34 36 36 39
19 14 10 22 34 35 28 34 27 29 38 46 49 42 42 40 38 39 42 43 44 44 41 38 35 32 32 31 30 27 24 24 27 28 27 27 29 30 31 34 37 35 39 40
Wind_Direction_500mb
91 114 213 192 191 195 271 137 117 265 301 99 51 136 167 177 187 182 188 187 188 193 193 201 201 211 222 219 221 226 233 239 249 261 274 279 288 301 311 325 334 338 340 341
118 237 202 206 224 216 238 154 150 199 353 90 53 62 359 175 212 199 193 196 196 195 202 204 205 215 222 222 225 229 236 244 254 265 269 273 283 296 302 316 327 331 330 330
8 125 288 250 191 154 209 157 167 153 17 55 83 359 262 244 236 213 207 205 201 200 203 205 209 214 218 223 229 237 243 250 259 263 263 269 280 289 289 302 315 320 321 321
341 360 319 142 91 246 155 179 145 135 101 179 30 237 262 232 238 216 210 211 207 207 209 211 212 213 219 225 232 238 246 252 254 254 257 264 276 279 282 294 310 317 316 315
114 13 28 24 356 340 93 114 128 102 90 87 354 61 267 151 237 231 219 214 214 213 216 214 215 217 220 226 231 239 245 242 243 245 251 264 271 273 280 295 308 312 315 318
74 14 93 185 251 95 21 71 47 60 90 26 282 136 268 203 200 213 217 211 211 216 219 219 217 214 217 225 235 241 224 223 230 241 254 263 268 275 287 297 304 308 314 317
32 312 325 40 340 86 58 47 27 24 17 209 296 33 244 223 236 213 199 204 200 198 197 198 201 205 212 223 224 213 211 220 233 246 256 265 276 286 293 300 305 307 307 306
112 344 313 34 341 178 56 250 149 167 172 240 74 238 249 221 248 230 219 210 199 193 190 192 195 201 206 205 201 205 216 228 238 249 261 274 284 290 295 298 301 304 307 309
120 347 299 227 48 216 74 6 171 102 33 65 224 288 295 218 241 216 200 195 188 187 188 191 191 192 192 196 206 214 221 231 243 258 271 279 283 288 293 296 298 300 301 302
228 71 106 325 38 28 77 172 57 3 119 240 277 280 237 249 236 203 183 180 180 181 182 184 186 187 194 201 208 213 218 230 247 259 269 279 287 290 294 299 301 302 303 302
127 101 239 102 203 185 140 112 55 114 129 174 256 259 218 226 220 202 192 182 178 181 183 184 187 194 199 204 204 208 217 235 252 268 278 282 288 293 297 299 301 304 305 305
204 139 189 220 232 182 183 183 141 117 210 176 152 276 220 251 259 196 187 184 185 186 186 190 195 197 199 200 201 211 227 244 256 265 275 284 292 301 310 315 317 319 319 320
182 269 47 349 351 359 207 196 159 113 92 203 137 263 243 282 249 209 192 190 189 189 190 192 195 198 198 199 208 220 235 247 257 265 274 289 302 312 322 334 340 341 339 338
130 180 184 188 205 143 208 201 180 149 130 189 216 266 270 248 230 203 202 198 195 194 195 197 197 198 199 205 214 223 230 236 244 252 258 266 282 313 342 354 355 354 351 349
142 231 186 257 233 202 227 209 187 200 192 172 239 208 250 217 213 208 205 202 198 197 198 200 201 201 203 207 213 216 222 227 230 231 233 240 264 333 349 351 355 356 352 352
163 229 297 281 299 242 260 235 213 223 229 265 291 271 188 246 222 205 207 203 203 204 205 205 205 205 208 211 215 218 222 222 219 215 211 217 233 285 309 335 346 347 345 343
166 157 107 267 345 318 291 230 210 192 195 186 206 238 155 214 216 218 215 213 211 211 208 207 208 209 211 215 218 219 215 214 212 212 217 226 249 277 302 323 331 334 334 334
150 142 151 253 356 251 250 177 172 213 240 214 257 231 207 226 239 243 235 226 219 218 215 213 212 211 211 213 214 214 214 214 213 216 222 232 250 276 300 314 320 323 325 324
162 132 213 213 215 295 278 178 167 175 279 216 227 237 223 237 254 259 243 233 233 225 219 217 214 211 212 215 213 212 213 214 215 219 228 240 255 273 293 307 314 318 322 324
83 81 160 146 208 227 244 181 182 170 286 198 198 228 184 160 204 248 239 238 227 219 217 212 208 209 213 210 210 211 213 214 216 222 233 248 264 282 300 310 316 320 323 324
149 187 211 216 258 285 245 167 150 140 245 177 206 243 191 190 221 256 250 226 216 206 206 202 204 210 210 211 212 214 215 217 218 224 235 251 273 293 304 310 313 316 317 317
168 160 193 157 207 275 171 116 177 213 185 209 220 223 211 216 232 241 229 210 196 191 190 196 201 203 207 210 214 214 213 214 220 230 245 265 283 293 298 303 307 309 312 314
226 195 184 187 210 273 195 226 222 236 253 242 241 240 241 228 228 238 218 203 195 194 195 197 202 205 207 209 210 211 212 218 226 238 254 269 280 289 296 300 302 304 307 310
241 185 211 145 243 240 247 252 252 259 258 269 264 259 249 244 235 227 210 200 198 196 199 202 202 204 206 207 207 210 217 224 234 247 259 272 282 288 292 295 297 300 303 306
202 144 199 254 286 278 263 258 256 256 256 261 258 253 257 252 237 226 213 206 204 205 202 204 206 206 206 207 211 218 224 232 245 258 269 279 284 289 293 295 299 300 303 303
191 189 196 253 232 246 254 267 268 260 261 260 252 251 259 249 241 226 217 214 209 205 205 204 203 204 206 210 215 223 233 244 253 260 270 280 287 293 296 299 300 299 301 298
Wind_Speed_850mb
2 2 12 14 13 8 5 3 10 3 9 8 3 11 10 23 28 34 44 48 49 47 36 38 37 32 32 36 38 35 32 29 26 23 22 19 17 17 16 15 19 24 29 31
2 8 11 9 12 14 12 11 6 1 5 8 5 5 5 6 12 40 49 52 53 48 46 46 46 41 35 34 35 35 32 30 26 25 22 19 17 16 14 15 20 27 30 32
3 4 14 19 4 9 7 16 9 10 5 12 10 8 6 7 8 33 45 52 53 53 51 50 49 43 38 34 32 32 31 29 28 26 22 19 17 16 14 16 21 28 33 34
5 7 9 2 9 3 11 5 13 17 9 7 7 7 10 11 12 11 43 50 55 58 54 49 48 45 39 32 30 30 30 30 28 24 21 18 18 18 18 22 28 33 35 36
2 6 10 12 11 8 4 6 10 9 11 8 5 7 11 3 14 15 31 53 58 56 55 53 52 45 38 34 29 26 28 27 25 21 19 20 21 21 23 28 33 35 32 31
3 2 3 8 11 5 5 7 15 10 8 4 1 8 11 13 16 15 22 45 51 54 55 50 51 48 42 36 30 27 24 23 21 19 21 23 23 25 29 33 32 29 28 28
5 6 8 11 8 5 12 7 6 7 5 10 3 4 16 7 15 14 37 60 48 41 43 46 50 46 38 32 28 24 22 21 20 22 23 24 26 29 31 31 30 31 32 29
6 6 5 6 6 5 7 4 10 11 7 7 2 12 13 11 9 20 29 62 50 47 45 42 39 37 34 31 26 23 22 22 23 22 22 24 25 27 29 32 34 35 34 33
6 3 2 0 3 1 2 4 7 13 7 7 6 14 18 11 11 10 23 45 54 52 47 42 39 36 33 29 25 23 22 21 19 17 18 22 25 29 32 34 34 35 34 33
7 4 2 5 6 5 2 6 5 6 7 6 9 11 12 9 15 9 18 49 57 51 47 44 41 38 32 27 24 23 19 16 15 18 21 24 25 26 27 28 28 29 31 32
5 6 5 4 10 12 2 1 8 7 7 8 2 12 12 10 14 19 25 55 57 53 51 47 43 37 32 29 26 22 17 17 19 19 20 21 21 22 23 24 25 26 27 27
1 8 5 11 4 5 2 6 9 8 7 2 6 12 6 11 11 27 39 50 51 53 53 48 43 40 36 32 25 21 20 18 16 17 17 17 18 19 19 20 20 21 23 24
8 1 4 14 7 5 6 9 6 10 5 10 8 11 3 8 8 31 48 49 53 54 51 47 45 41 36 31 27 21 17 17 16 16 15 14 13 13 13 14 16 18 20 22
2 4 11 13 9 7 7 8 10 8 8 9 13 17 13 9 11 21 50 57 59 61 58 54 50 46 40 33 26 23 20 17 15 13 10 8 6 6 7 11 14 17 20 21
7 6 7 11 15 8 9 10 14 18 9 13 17 20 24 14 20 45 60 60 65 68 64 61 57 51 43 35 29 24 22 19 16 12 10 7 4 5 9 11 14 18 20 23
3 5 1 8 4 12 13 16 18 19 9 21 7 28 19 22 27 29 47 61 71 74 69 64 58 51 43 36 31 29 25 21 18 15 11 8 5 4 7 10 13 16 20 24
8 7 5 8 8 9 15 25 29 12 13 18 19 28 9 10 17 41 52 65 77 80 74 68 62 53 43 36 30 28 25 23 20 17 14 11 8 7 9 11 14 18 22 26
10 8 5 5 5 7 12 4 8 25 22 24 17 12 15 18 36 47 55 63 73 74 70 64 58 50 42 36 34 31 28 25 23 20 16 12 10 9 11 13 18 23 27 31
5 7 2 5 6 15 9 6 9 13 14 20 36 23 13 13 10 22 29 44 58 70 64 60 55 50 43 38 35 32 29 27 25 21 16 13 12 12 13 17 23 27 30 30
8 6 6 4 7 13 9 5 11 9 11 5 12 13 18 18 6 10 21 28 39 50 54 52 52 47 41 39 36 32 30 27 25 20 17 15 14 15 18 22 25 28 30 31
6 3 15 9 8 15 16 10 10 6 10 8 9 11 24 11 22 11 17 29 31 46 49 50 48 44 39 35 33 30 28 26 24 21 18 16 15 18 22 24 27 29 29 28
16 16 9 7 7 18 22 12 14 10 8 9 11 11 24 43 19 20 19 30 38 46 49 46 43 40 37 34 32 30 27 25 23 19 16 16 18 21 24 26 28 29 31 31
7 14 11 19 14 7 35 11 31 6 9 12 16 14 15 28 39 25 27 37 43 45 44 42 39 37 35 33 30 28 26 24 21 19 18 20 23 24 26 27 29 31 33 34
10 13 7 3 10 23 40 34 46 30 33 25 24 21 22 27 31 31 35 43 46 44 42 39 39 37 35 32 30 27 25 22 21 22 23 25 25 26 27 29 31 33 34 37
10 14 10 10 16 37 40 41 39 47 50 43 38 33 32 30 32 34 38 44 45 43 41 38 35 33 31 30 28 27 25 23 23 25 26 26 27 28 30 32 34 36 36 39
19 14 10 22 34 35 28 34 27 29 38 46 49 42 42 40 38 39 42 43 44 44 41 38 35 32 32 31 30 27 24 24 27 28 27 27 29 30 31 34 37 35 39 40
Wind_Direction_850mb
91 114 213 192 191 195 271 137 117 265 301 99 51 136 167 177 187 182 188 187 188 193 193 201 201 211 222 219 221 226 233 239 249 261 274 279 288 301 311 325 334 338 340 341
118 237 202 206 224 216 238 154 150 199 353 90 53 62 359 175 212 199 193 196 196 195 202 204 205 215 222 222 225 229 236 244 254 265 269 273 283 296 302 316 327 331 330 330
8 125 288 250 191 154 209 157 167 153 17 55 83 359 262 244 236 213 207 205 201 200 203 205 209 214 218 223 229 237 243 250 259 263 263 269 280 289 289 302 315 320 321 321
341 360 319 142 91 246 155 179 145 135 101 179 30 237 262 232 238 216 210 211 207 207 209 211 212 213 219 225 232 238 246 252 254 254 257 264 276 279 282 294 310 317 316 315
114 13 28 24 356 340 93 114 128 102 90 87 354 61 267 151 237 231 219 214 214 213 216 214 215 217 220 226 231 239 245 242 243 245 251 264 271 273 280 295 308 312 315 318
74 14 93 185 251 95 21 71 47 60 90 26 282 136 268 203 200 213 217 211 211 216 219 219 217 214 217 225 235 241 224 223 230 241 254 263 268 275 287 297 304 308 314 317
32 312 325 40 340 86 58 47 27 24 17 209 296 33 244 223 236 213 199 204 200 198 197 198 201 205 212 223 224 213 211 220 233 246 256 265 276 286 293 300 305 307 307 306
112 344 313 34 341 178 56 250 149 167 172 240 74 238 249 221 248 230 219 210 199 193 190 192 195 201 206 205 201 205 216 228 238 249 261 274 284 290 295 298 301 304 307 309
120 347 299 227 48 216 74 6 171 102 33 65 224 288 295 218 241 216 200 195 188 187 188 191 191 192 192 196 206 214 221 231 243 258 271 279 283 288 293 296 298 300 301 302
228 71 106 325 38 28 77 172 57 3 119 240 277 280 237 249 236 203 183 180 180 181 182 184 186 187 194 201 208 213 218 230 247 259 269 279 287 290 294 299 301 302 303 302
127 101 239 102 203 185 140 112 55 114 129 174 256 259 218 226 220 202 192 182 178 181 183 184 187 194 199 204 204 208 217 235 252 268 278 282 288 293 297 299 301 304 305 305
204 139 189 220 232 182 183 183 141 117 210 176 152 276 220 251 259 196 187 184 185 186 186 190 195 197 199 200 201 211 227 244 256 265 275 284 292 301 310 315 317 319 319 320
182 269 47 349 351 359 207 196 159 113 92 203 137 263 243 282 249 209 192 190 189 189 190 192 195 198 198 199 208 220 235 247 257 265 274 289 302 312 322 334 340 341 339 338
130 180 184 188 205 143 208 201 180 149 130 189 216 266 270 248 230 203 202 198 195 194 195 197 197 198 199 205 214 223 230 236 244 252 258 266 282 313 342 354 355 354 351 349
142 231 186 257 233 202 227 209 187 200 192 172 239 208 250 217 213 208 205 202 198 197 198 200 201 201 203 207 213 216 222 227 230 231 233 240 264 333 349 351 355 356 352 352
163 229 297 281 299 242 260 235 213 223 229 265 291 271 188 246 222 205 207 203 203 204 205 205 205 205 208 211 215 218 222 222 219 215 211 217 233 285 309 335 346 347 345 343
166 157 107 267 345 318 291 230 210 192 195 186 206 238 155 214 216 218 215 213 211 211 208 207 208 209 211 215 218 219 215 214 212 212 217 226 249 277 302 323 331 334 334 334
150 142 151 253 356 251 250 177 172 213 240 214 257 231 207 226 239 243 235 226 219 218 215 213 212 211 211 213 214 214 214 214 213 216 222 232 250 276 300 314 320 323 325 324
162 132 213 213 215 295 278 178 167 175 279 216 227 237 223 237 254 259 243 233 233 225 219 217 214 211 212 215 213 212 213 214 215 219 228 240 255 273 293 307 314 318 322 324
83 81 160 146 208 227 244 181 182 170 286 198 198 228 184 160 204 248 239 238 227 219 217 212 208 209 213 210 210 211 213 214 216 222 233 248 264 282 300 310 316 320 323 324
149 187 211 216 258 285 245 167 150 140 245 177 206 243 191 190 221 256 250 226 216 206 206 202 204 210 210 211 212 214 215 217 218 224 235 251 273 293 304 310 313 316 317 317
168 160 193 157 207 275 171 116 177 213 185 209 220 223 211 216 232 241 229 210 196 191 190 196 201 203 207 210 214 214 213 214 220 230 245 265 283 293 298 303 307 309 312 314
226 195 184 187 210 273 195 226 222 236 253 242 241 240 241 228 228 238 218 203 195 194 195 197 202 205 207 209 210 211 212 218 226 238 254 269 280 289 296 300 302 304 307 310
241 185 211 145 243 240 247 252 252 259 258 269 264 259 249 244 235 227 210 200 198 196 199 202 202 204 206 207 207 210 217 224 234 247 259 272 282 288 292 295 297 300 303 306
202 144 199 254 286 278 263 258 256 256 256 261 258 253 257 252 237 226 213 206 204 205 202 204 206 206 206 207 211 218 224 232 245 258 269 279 284 289 293 295 299 300 303 303
191 189 196 253 232 246 254 267 268 260 261 260 252 251 259 249 241 226 217 214 209 205 205 204 203 204 206 210 215 223 233 244 253 260 270 280 287 293 296 299 300 299 301 298